STARLINK-34676, 64853

Orbit data source: Space-Track

STARLINK-34676, 64853 is a payload satellite owned by SpaceX/Seattle (US) in SSO that was launched on Sat, 19 Jul 2025 UTC via an FALCON 9 launch vehicle from the Air Force Western Test Range (AFWTR). Payload-class satellites include a variety of spacecraft equipped with specific instruments for various scientific and technological missions. These include communications satellites like Starlink; space stations such as the ISS; scientific satellites like the Hubble; Earth observation satellites from companies like Planet Labs, Umbra, and HawkEye 360; GPS; miniature CubeSats for education and research; and military/defense satellites.

Loading next visibility...
Identifier
64853, 2025-152M
Orbit
SSO
Country
Flag of USUS
Related business
Manufacturer
SpaceX/Seattle
Mission
Operational Commercial Communications
Bus & Motor
STARLINK V2MO, Unknown motor
Mass
575 kg wet, ~530 kg dry
Launch date (UTC)
2025-07-19 (9 months ago)
Launch vehicle
FALCON 9
Launch site
Air Force Western Test Range (AFWTR)
Object type
Payload
Rocket body
Debris
Shape & HBR
Box + 2 Pan, 17.7 m
Radar Cross Section
36.964 m², Large (>1 m²)

Expand to show TLE details & history
Last TLE update: 18 hours ago

TLE from 18 hours ago
0 STARLINK-34676
1 64853U 25152M   26094.60306141  .00014826  00000-0  10290-2 0  9998
2 64853  97.6016 311.0002 0002235  88.8925 271.2558 15.05670269 39313
Epoch: 2026-04-04T14:28Z
TLE epoch observation values (Epoch: 2026-04-04T14:28:24.505Z)
Latitude
-0.00003°
Longitude
-99.02237°
Altitude
552.481 km
Speed
7.586 km/s
True Right ascension
20h 44m 00s
True Declination
0° 00' 00"
Sunlit
Object was in daylight at epoch
Visualization orbit readout
Latitude
Unknown
Longitude
Unknown
Altitude
Unknown
Speed
Unknown
Apparent Right ascension
Unknown
Apparent Declination
Unknown
Sunlit
N/A
Visualization observer readout
Local Sidereal Time
14:32:15
Azimuth
Unknown
Elevation
Unknown
Doppler factor
Unknown
Orbital elements
Apogee altitude
547.99 km
Perigee altitude
544.895 km
Semi-major axis
6,924.579 km
Eccentricity
0.00022
Inclination
97.6016°
RAAN
311.0002°
Arg. of periapsis
88.8925°
True anomaly
271.23019°
Mean anomaly
271.2558°
Eccentric anomaly
271.243°
Mean motion
3.76663 °/min
Orbital period
95.58 mins
BSTAR
0.001029
Loading maneuver chart data...
Computing Atmospheric mass density...
Loading historical data...
Loading historical data...
Loading historical data...
Loading historical data...
Loading historical data...
Loading historical data...
Loading historical data...

Documentation

Showing up to 5 results
|